Find TshepisoSat

NORAD ID: 39417 Int'l Des: 2013-066 Owner: CPUT Country: ZA operational
LEOCIRCULARRETROGRADESSO

Current View

Loading 3D Globe...

About TshepisoSat

Description loading...

Upcoming Passes

Passes for default location (London). Set your location on the main map for personalized predictions.

Altitude History

Loading altitude history...

Two-Line Element Set

1 39417U 13066B 26150.47630830 .00005877 00000-0 45689-3 0 9997
2 39417 97.8106 112.7171 0040028 310.5362 49.2378 15.01049072678071
Epoch: May 30, 2026 • Age: 11 hours

Current Status

Altitude 550.5 km
Velocity 7.60 km/s
Sub-Earth Point 4.64°N, 115.67°W
Launch Date Nov 21, 2013
Age 12.5 years
Type other

Technical Details

Classification Payload
Mass 1.20 kg
Dry Mass 1.20 kg
Total Mass 1.20 kg
Length 0.10 m
Diameter 0.10 m
Span 0.10 m
Shape Box
Manufacturer CPUT
Bus Type Cubesat 1U
Phase Status In Orbit
Owner/State CPUT/ZA

Most Searched